,,Stat6,,Stat2,,Stat8,,Stat9,,Stat10,,Wind1,,Wind1,
time,status,PA1M_AVG,status,PR1M_SUM,status,RH1M_AVG,status,SR1M_AVG,status,TA1M_AVG,status,W1dAve1m,status,W1sAve1m,
2008-10-19, 00:00:00,VALID,916.466,VALID,0,VALID,100,VALID,-0.0339617,VALID,20.699,VALID,25,VALID,0,
2008-10-19, 00:01:00,VALID,916.458,VALID,0,VALID,100,VALID,0,VALID,20.712,VALID,25,VALID,0,
2008-10-19, 00:02:00,VALID,916.444,VALID,0,VALID,100,VALID,-0.0169808,VALID,20.7253,VALID,25,VALID,0,
2008-10-19, 00:03:00,VALID,916.43,VALID,0,VALID,100,VALID,-0.0169808,VALID,20.725,VALID,25,VALID,0,
2008-10-19, 00:04:00,VALID,916.417,VALID,0,VALID,100,VALID,-0.0169808,VALID,20.725,VALID,25,VALID,0,
2008-10-19, 00:05:00,VALID,916.403,VALID,0,VALID,100,VALID,-0.0169808,VALID,20.7253,VALID,25,VALID,0,
2008-10-19, 00:06:00,VALID,916.405,VALID,0,VALID,100,VALID,-0.0169808,VALID,20.7347,VALID,25,VALID,0,
2008-10-19, 00:07:00,VALID,916.407,VALID,0,VALID,100,VALID,-0.0169808,VALID,20.748,VALID,25,VALID,0,
2008-10-19, 00:08:00,VALID,916.404,VALID,0,VALID,100,VALID,-0.0339617,VALID,20.758,VALID,25,VALID,0,
2008-10-19, 00:09:00,VALID,916.415,VALID,0,VALID,100,VALID,-0.0509425,VALID,20.758,VALID,25,VALID,0,
2008-10-19, 00:10:00,VALID,916.436,VALID,0,VALID,100,VALID,-0.0169808,VALID,20.7769,VALID,25,VALID,0,
2008-10-19, 00:11:00,VALID,916.439,VALID,0,VALID,100,VALID,-0.0679233,VALID,20.7897,VALID,25,VALID,0,
2008-10-19, 00:12:00,VALID,916.448,VALID,0,VALID,100,VALID,-0.0509425,VALID,20.8094,VALID,25,VALID,0,
2008-10-19, 00:13:00,VALID,916.447,VALID,0,VALID,100,VALID,-0.0169808,VALID,20.8159,VALID,25,VALID,0,
2008-10-19, 00:14:00,VALID,916.457,VALID,0,VALID,100,VALID,0,VALID,20.8426,VALID,25,VALID,0,
2008-10-19, 00:15:00,VALID,916.447,VALID,0,VALID,100,VALID,-0.0339617,VALID,20.8554,VALID,25,VALID,0,
2008-10-19, 00:16:00,VALID,916.462,VALID,0,VALID,100,VALID,-0.0339617,VALID,20.8351,VALID,25,VALID,0,
2008-10-19, 00:17:00,VALID,916.45,VALID,0,VALID,100,VALID,0,VALID,20.8189,VALID,25,VALID,0,
2008-10-19, 00:18:00,VALID,916.448,VALID,0,VALID,100,VALID,-0.0339617,VALID,20.8026,VALID,25,VALID,0,
2008-10-19, 00:19:00,VALID,916.445,VALID,0,VALID,100,VALID,-0.0679233,VALID,20.7975,VALID,25,VALID,0,
2008-10-19, 00:20:00,VALID,916.423,VALID,0,VALID,100,VALID,-0.0849042,VALID,20.7947,VALID,25,VALID,0,
2008-10-19, 00:21:00,VALID,916.416,VALID,0,VALID,100,VALID,-0.101885,VALID,20.8012,VALID,25,VALID,0,
2008-10-19, 00:22:00,VALID,916.406,VALID,0,VALID,100,VALID,-0.152827,VALID,20.801,VALID,25,VALID,0,
2008-10-19, 00:23:00,VALID,916.391,VALID,0,VALID,100,VALID,-0.135847,VALID,20.798,VALID,25,VALID,0,
2008-10-19, 00:24:00,VALID,916.385,VALID,0,VALID,100,VALID,-0.101885,VALID,20.8145,VALID,25,VALID,0.0359375,
2008-10-19, 00:25:00,VALID,916.367,VALID,0,VALID,100,VALID,-0.118866,VALID,20.795,VALID,25,VALID,0,
2008-10-19, 00:26:00,VALID,916.35,VALID,0,VALID,100,VALID,-0.101885,VALID,20.7558,VALID,25,VALID,0,
2008-10-19, 00:27:00,VALID,916.35,VALID,0,VALID,100,VALID,-0.101885,VALID,20.7425,VALID,25,VALID,0,
2008-10-19, 00:28:00,VALID,916.345,VALID,0,VALID,100,VALID,-0.101885,VALID,20.7428,VALID,25,VALID,0.112038,
2008-10-19, 00:29:00,VALID,916.32,VALID,0,VALID,100,VALID,-0.118866,VALID,20.7398,VALID,25,VALID,0,
2008-10-19, 00:30:00,VALID,916.313,VALID,0,VALID,100,VALID,-0.118866,VALID,20.7263,VALID,25,VALID,0,
2008-10-19, 00:31:00,VALID,916.294,VALID,0,VALID,100,VALID,-0.101885,VALID,20.7166,VALID,25,VALID,0,
2008-10-19, 00:32:00,VALID,916.284,VALID,0,VALID,100,VALID,-0.101885,VALID,20.7009,VALID,25,VALID,0,
2008-10-19, 00:33:00,VALID,916.27,VALID,0,VALID,100,VALID,-0.101885,VALID,20.6746,VALID,25,VALID,0,
2008-10-19, 00:34:00,VALID,916.249,VALID,0,VALID,100,VALID,-0.0679233,VALID,20.6514,VALID,25,VALID,0,
2008-10-19, 00:35:00,VALID,916.235,VALID,0,VALID,100,VALID,0,VALID,20.6569,VALID,25,VALID,0,
2008-10-19, 00:36:00,VALID,916.209,VALID,0,VALID,100,VALID,-0.0339617,VALID,20.6439,VALID,25,VALID,0,
2008-10-19, 00:37:00,VALID,916.185,VALID,0,VALID,100,VALID,0,VALID,20.6406,VALID,25,VALID,0,
2008-10-19, 00:38:00,VALID,916.168,VALID,0,VALID,100,VALID,-0.0339617,VALID,20.6376,VALID,25,VALID,0,
2008-10-19, 00:39:00,VALID,916.149,VALID,0,VALID,100,VALID,-0.0679233,VALID,20.6506,VALID,25,VALID,0,
2008-10-19, 00:40:00,VALID,916.135,VALID,0,VALID,100,VALID,-0.0339617,VALID,20.6536,VALID,25,VALID,0,
2008-10-19, 00:41:00,VALID,916.126,VALID,0,VALID,100,VALID,0,VALID,20.6436,VALID,25,VALID,0,
2008-10-19, 00:42:00,VALID,916.124,VALID,0,VALID,100,VALID,0,VALID,20.6374,VALID,25,VALID,0,
2008-10-19, 00:43:00,VALID,916.111,VALID,0,VALID,100,VALID,-0.0509425,VALID,20.6506,VALID,25,VALID,0,
2008-10-19, 00:44:00,VALID,916.114,VALID,0,VALID,100,VALID,-0.0339617,VALID,20.6436,VALID,25,VALID,0,
2008-10-19, 00:45:00,VALID,916.1,VALID,0,VALID,100,VALID,-0.0169808,VALID,20.6671,VALID,25,VALID,0,
2008-10-19, 00:46:00,VALID,916.09,VALID,0,VALID,100,VALID,-0.0169808,VALID,20.6706,VALID,25,VALID,0,
2008-10-19, 00:47:00,VALID,916.078,VALID,0,VALID,100,VALID,-0.0169808,VALID,20.6761,VALID,25,VALID,0,
2008-10-19, 00:48:00,VALID,916.056,VALID,0,VALID,100,VALID,0,VALID,20.702,VALID,25,VALID,0,
2008-10-19, 00:49:00,VALID,916.043,VALID,0,VALID,100,VALID,-0.0169808,VALID,20.725,VALID,25,VALID,0,
2008-10-19, 00:50:00,VALID,916.025,VALID,0,VALID,100,VALID,-0.0339617,VALID,20.7385,VALID,25,VALID,0,
2008-10-19, 00:51:00,VALID,916.01,VALID,0,VALID,100,VALID,-0.0169808,VALID,20.7477,VALID,25,VALID,0,
2008-10-19, 00:52:00,VALID,915.988,VALID,0,VALID,100,VALID,-0.0339617,VALID,20.7477,VALID,25,VALID,0,
2008-10-19, 00:53:00,VALID,915.971,VALID,0,VALID,100,VALID,0,VALID,20.7507,VALID,25,VALID,0,
2008-10-19, 00:54:00,VALID,915.964,VALID,0,VALID,100,VALID,-0.0169808,VALID,20.7542,VALID,25,VALID,0,
2008-10-19, 00:55:00,VALID,915.952,VALID,0,VALID,100,VALID,-0.0169808,VALID,20.7675,VALID,25,VALID,0,
2008-10-19, 00:56:00,VALID,915.935,VALID,0,VALID,100,VALID,-0.0169808,VALID,20.7572,VALID,25,VALID,0,
2008-10-19, 00:57:00,VALID,915.943,VALID,0,VALID,100,VALID,-0.0509425,VALID,20.7412,VALID,25,VALID,0,
2008-10-19, 00:58:00,VALID,915.935,VALID,0,VALID,100,VALID,-0.0509425,VALID,20.748,VALID,25,VALID,0,
2008-10-19, 00:59:00,VALID,915.92,VALID,0,VALID,100,VALID,-0.0169808,VALID,20.7545,VALID,25,VALID,0,
2008-10-19, 01:00:00,VALID,915.917,VALID,0,VALID,100,VALID,-0.0339617,VALID,20.764,VALID,25,VALID,0,
2008-10-19, 01:01:00,VALID,915.906,VALID,0,VALID,100,VALID,-0.0509425,VALID,20.7645,VALID,25,VALID,0,
2008-10-19, 01:02:00,VALID,915.896,VALID,0,VALID,100,VALID,-0.0169808,VALID,20.738,VALID,39,VALID,0.053267,
2008-10-19, 01:03:00,VALID,915.885,VALID,0,VALID,100,VALID,0,VALID,20.7542,VALID,57,VALID,0,
2008-10-19, 01:04:00,VALID,915.884,VALID,0,VALID,100,VALID,-0.0509425,VALID,20.7447,VALID,57,VALID,0,
2008-10-19, 01:05:00,VALID,915.86,VALID,0,VALID,100,VALID,-0.0169808,VALID,20.7407,VALID,57,VALID,0,
2008-10-19, 01:06:00,VALID,915.851,VALID,0,VALID,100,VALID,-0.0169808,VALID,20.738,VALID,66,VALID,0,
2008-10-19, 01:07:00,VALID,915.845,VALID,0,VALID,100,VALID,-0.0339617,VALID,20.7247,VALID,84,VALID,0,
2008-10-19, 01:08:00,VALID,915.832,VALID,0,VALID,100,VALID,-0.0169808,VALID,20.722,VALID,84,VALID,0,
2008-10-19, 01:09:00,VALID,915.826,VALID,0,VALID,100,VALID,0,VALID,20.7377,VALID,84,VALID,0,
2008-10-19, 01:10:00,VALID,915.835,VALID,0,VALID,100,VALID,-0.0169808,VALID,20.764,VALID,84,VALID,0,
2008-10-19, 01:11:00,VALID,915.839,VALID,0,VALID,100,VALID,-0.0169808,VALID,20.7897,VALID,84,VALID,0,
2008-10-19, 01:12:00,VALID,915.838,VALID,0,VALID,100,VALID,-0.0169808,VALID,20.8124,VALID,83,VALID,0,
2008-10-19, 01:13:00,VALID,915.824,VALID,0,VALID,100,VALID,0,VALID,20.8221,VALID,83,VALID,0,
2008-10-19, 01:14:00,VALID,915.82,VALID,0,VALID,100,VALID,-0.0339617,VALID,20.8024,VALID,83,VALID,0,
2008-10-19, 01:15:00,VALID,915.808,VALID,0,VALID,100,VALID,0,VALID,20.7829,VALID,83,VALID,0,
2008-10-19, 01:16:00,VALID,915.796,VALID,0,VALID,100,VALID,-0.0339617,VALID,20.7734,VALID,83,VALID,0,
2008-10-19, 01:17:00,VALID,915.793,VALID,0,VALID,100,VALID,-0.0169808,VALID,20.7704,VALID,84,VALID,0,
2008-10-19, 01:18:00,VALID,915.792,VALID,0,VALID,100,VALID,0,VALID,20.7669,VALID,84,VALID,0,
2008-10-19, 01:19:00,VALID,915.781,VALID,0,VALID,100,VALID,0,VALID,20.7637,VALID,83,VALID,0,
2008-10-19, 01:20:00,VALID,915.792,VALID,0,VALID,100,VALID,0.0169808,VALID,20.7732,VALID,84,VALID,0,
2008-10-19, 01:21:00,VALID,915.786,VALID,0,VALID,100,VALID,0,VALID,20.7797,VALID,84,VALID,0,
2008-10-19, 01:22:00,VALID,915.789,VALID,0,VALID,100,VALID,0,VALID,20.7997,VALID,84,VALID,0,
2008-10-19, 01:23:00,VALID,915.781,VALID,0,VALID,100,VALID,0,VALID,20.8224,VALID,84,VALID,0,
2008-10-19, 01:24:00,VALID,915.762,VALID,0,VALID,100,VALID,0.0169808,VALID,20.8254,VALID,84,VALID,0,
2008-10-19, 01:25:00,VALID,915.749,VALID,0,VALID,100,VALID,-0.0169808,VALID,20.8354,VALID,84,VALID,0,
2008-10-19, 01:26:00,VALID,915.741,VALID,0,VALID,100,VALID,0,VALID,20.8286,VALID,84,VALID,0,
2008-10-19, 01:27:00,VALID,915.728,VALID,0,VALID,100,VALID,0,VALID,20.8483,VALID,84,VALID,0,
2008-10-19, 01:28:00,VALID,915.723,VALID,0,VALID,100,VALID,-0.0169808,VALID,20.8351,VALID,84,VALID,0,
2008-10-19, 01:29:00,VALID,915.71,VALID,0,VALID,100,VALID,0,VALID,20.8513,VALID,84,VALID,0,
2008-10-19, 01:30:00,VALID,915.703,VALID,0,VALID,100,VALID,0,VALID,20.8611,VALID,83,VALID,0,
2008-10-19, 01:31:00,VALID,915.679,VALID,0,VALID,100,VALID,-0.0169808,VALID,20.8678,VALID,84,VALID,0,
2008-10-19, 01:32:00,VALID,915.669,VALID,0,VALID,100,VALID,0.0169808,VALID,20.8443,VALID,84,VALID,0,
2008-10-19, 01:33:00,VALID,915.655,VALID,0,VALID,100,VALID,0,VALID,20.8481,VALID,83,VALID,0,
2008-10-19, 01:34:00,VALID,915.636,VALID,0,VALID,100,VALID,-0.0169808,VALID,20.8416,VALID,83,VALID,0,
2008-10-19, 01:35:00,VALID,915.606,VALID,0,VALID,100,VALID,-0.0339617,VALID,20.8321,VALID,83,VALID,0,
2008-10-19, 01:36:00,VALID,915.581,VALID,0,VALID,100,VALID,-0.0169808,VALID,20.8156,VALID,83,VALID,0,
2008-10-19, 01:37:00,VALID,915.547,VALID,0,VALID,100,VALID,0,VALID,20.8126,VALID,67,VALID,0,
2008-10-19, 01:38:00,VALID,915.529,VALID,0,VALID,100,VALID,0,VALID,20.8024,VALID,46,VALID,0,
2008-10-19, 01:39:00,VALID,915.512,VALID,0,VALID,100,VALID,0,VALID,20.7964,VALID,46,VALID,0,
2008-10-19, 01:40:00,VALID,915.492,VALID,0,VALID,100,VALID,0,VALID,20.7899,VALID,45,VALID,0,
2008-10-19, 01:41:00,VALID,915.478,VALID,0,VALID,100,VALID,0,VALID,20.7702,VALID,43,VALID,0.0477628,
2008-10-19, 01:42:00,VALID,915.476,VALID,0,VALID,100,VALID,0.0339617,VALID,20.7667,VALID,43,VALID,0,
2008-10-19, 01:43:00,VALID,915.448,VALID,0,VALID,100,VALID,0.0169808,VALID,20.7569,VALID,42,VALID,0,
2008-10-19, 01:44:00,VALID,915.448,VALID,0,VALID,100,VALID,0.0339617,VALID,20.7475,VALID,30,VALID,0,
2008-10-19, 01:45:00,VALID,915.436,VALID,0,VALID,100,VALID,0,VALID,20.7442,VALID,28,VALID,0,
2008-10-19, 01:46:00,VALID,915.42,VALID,0,VALID,100,VALID,0,VALID,20.7312,VALID,29,VALID,0,
2008-10-19, 01:47:00,VALID,915.415,VALID,0,VALID,100,VALID,-0.0169808,VALID,20.725,VALID,29,VALID,0,
2008-10-19, 01:48:00,VALID,915.412,VALID,0,VALID,100,VALID,0,VALID,20.7377,VALID,29,VALID,0,
2008-10-19, 01:49:00,VALID,915.405,VALID,0,VALID,100,VALID,-0.0339617,VALID,20.751,VALID,29,VALID,0,
2008-10-19, 01:50:00,VALID,915.401,VALID,0,VALID,100,VALID,-0.0849042,VALID,20.7688,VALID,29,VALID,0,
2008-10-19, 01:51:00,VALID,915.41,VALID,0,VALID,100,VALID,-0.118866,VALID,20.7883,VALID,29,VALID,0,
2008-10-19, 01:52:00,VALID,915.401,VALID,0,VALID,100,VALID,-0.118866,VALID,20.7877,VALID,29,VALID,0,
2008-10-19, 01:53:00,VALID,915.41,VALID,0,VALID,100,VALID,-0.118866,VALID,20.798,VALID,29,VALID,0,
2008-10-19, 01:54:00,VALID,915.407,VALID,0,VALID,100,VALID,-0.118866,VALID,20.798,VALID,29,VALID,0,
2008-10-19, 01:55:00,VALID,915.396,VALID,0,VALID,100,VALID,-0.118866,VALID,20.7915,VALID,29,VALID,0,
2008-10-19, 01:56:00,VALID,915.391,VALID,0,VALID,100,VALID,-0.118866,VALID,20.7945,VALID,29,VALID,0,
2008-10-19, 01:57:00,VALID,915.384,VALID,0,VALID,100,VALID,-0.101885,VALID,20.7975,VALID,31,VALID,0,
2008-10-19, 01:58:00,VALID,915.388,VALID,0,VALID,100,VALID,-0.101885,VALID,20.804,VALID,31,VALID,0,
2008-10-19, 01:59:00,VALID,915.397,VALID,0,VALID,100,VALID,-0.101885,VALID,20.8107,VALID,30,VALID,0,
2008-10-19, 02:00:00,VALID,915.398,VALID,0,VALID,100,VALID,-0.101885,VALID,20.7818,VALID,29,VALID,0,
2008-10-19, 02:01:00,VALID,915.406,VALID,0,VALID,100,VALID,-0.101885,VALID,20.7688,VALID,29,VALID,0,
2008-10-19, 02:02:00,VALID,915.419,VALID,0,VALID,100,VALID,-0.118866,VALID,20.7361,VALID,29,VALID,0,
2008-10-19, 02:03:00,VALID,915.445,VALID,0,VALID,100,VALID,-0.0849042,VALID,20.7298,VALID,29,VALID,0,
2008-10-19, 02:04:00,VALID,915.456,VALID,0,VALID,100,VALID,-0.0679233,VALID,20.719,VALID,29,VALID,0,
2008-10-19, 02:05:00,VALID,915.462,VALID,0,VALID,100,VALID,0,VALID,20.7118,VALID,29,VALID,0,
2008-10-19, 02:06:00,VALID,915.475,VALID,0,VALID,100,VALID,0,VALID,20.712,VALID,29,VALID,0,
2008-10-19, 02:07:00,VALID,915.48,VALID,0,VALID,100,VALID,0,VALID,20.6858,VALID,29,VALID,0,
2008-10-19, 02:08:00,VALID,915.486,VALID,0,VALID,100,VALID,0,VALID,20.6628,VALID,28,VALID,0,
2008-10-19, 02:09:00,VALID,915.494,VALID,0,VALID,100,VALID,0,VALID,20.6693,VALID,28,VALID,0,
2008-10-19, 02:10:00,VALID,915.489,VALID,0,VALID,100,VALID,0,VALID,20.6661,VALID,28,VALID,0,
2008-10-19, 02:11:00,VALID,915.493,VALID,0,VALID,100,VALID,0,VALID,20.6666,VALID,28,VALID,0,
2008-10-19, 02:12:00,VALID,915.479,VALID,0,VALID,100,VALID,0.0169808,VALID,20.6631,VALID,28,VALID,0,
2008-10-19, 02:13:00,VALID,915.484,VALID,0,VALID,100,VALID,0.0169808,VALID,20.6666,VALID,28,VALID,0,
2008-10-19, 02:14:00,VALID,915.468,VALID,0,VALID,100,VALID,0.0169808,VALID,20.6563,VALID,28,VALID,0,
2008-10-19, 02:15:00,VALID,915.467,VALID,0,VALID,100,VALID,-0.0169808,VALID,20.6633,VALID,28,VALID,0,
2008-10-19, 02:16:00,VALID,915.454,VALID,0,VALID,100,VALID,0.0169808,VALID,20.6731,VALID,28,VALID,0,
2008-10-19, 02:17:00,VALID,915.457,VALID,0,VALID,100,VALID,0.0339617,VALID,20.6728,VALID,28,VALID,0,
2008-10-19, 02:18:00,VALID,915.466,VALID,0,VALID,100,VALID,-0.0169808,VALID,20.6636,VALID,28,VALID,0,
2008-10-19, 02:19:00,VALID,915.45,VALID,0,VALID,100,VALID,-0.0169808,VALID,20.6501,VALID,28,VALID,0,
2008-10-19, 02:20:00,VALID,915.443,VALID,0,VALID,100,VALID,0,VALID,20.6306,VALID,28,VALID,0,
2008-10-19, 02:21:00,VALID,915.429,VALID,0,VALID,100,VALID,0,VALID,20.6339,VALID,33,VALID,0.0411585,
2008-10-19, 02:22:00,VALID,915.424,VALID,0,VALID,100,VALID,-0.0339617,VALID,20.6349,VALID,49,VALID,0.00247713,
2008-10-19, 02:23:00,VALID,915.415,VALID,0,VALID,100,VALID,-0.0339617,VALID,20.6247,VALID,49,VALID,0.0412427,
2008-10-19, 02:24:00,VALID,915.405,VALID,0,VALID,100,VALID,-0.0169808,VALID,20.6311,VALID,49,VALID,0,
2008-10-19, 02:25:00,VALID,915.39,VALID,0,VALID,100,VALID,0,VALID,20.6174,VALID,49,VALID,0,
2008-10-19, 02:26:00,VALID,915.383,VALID,0,VALID,100,VALID,0.0169808,VALID,20.6176,VALID,35,VALID,0.319712,
2008-10-19, 02:27:00,VALID,915.388,VALID,0,VALID,100,VALID,-0.0169808,VALID,20.6047,VALID,26,VALID,0.471418,
2008-10-19, 02:28:00,VALID,915.379,VALID,0,VALID,100,VALID,0,VALID,20.6017,VALID,26,VALID,0.18022,
2008-10-19, 02:29:00,VALID,915.375,VALID,0,VALID,100,VALID,0,VALID,20.5914,VALID,26,VALID,0,
2008-10-19, 02:30:00,VALID,915.36,VALID,0,VALID,100,VALID,-0.0169808,VALID,20.5979,VALID,26,VALID,0,
2008-10-19, 02:31:00,VALID,915.359,VALID,0,VALID,100,VALID,0.0169808,VALID,20.6209,VALID,26,VALID,0,
2008-10-19, 02:32:00,VALID,915.348,VALID,0,VALID,100,VALID,0,VALID,20.6112,VALID,26,VALID,0,
2008-10-19, 02:33:00,VALID,915.34,VALID,0,VALID,100,VALID,0,VALID,20.6114,VALID,26,VALID,0,
2008-10-19, 02:34:00,VALID,915.333,VALID,0,VALID,100,VALID,-0.0679233,VALID,20.6149,VALID,26,VALID,0,
2008-10-19, 02:35:00,VALID,915.325,VALID,0,VALID,100,VALID,-0.101885,VALID,20.6319,VALID,26,VALID,0,
2008-10-19, 02:36:00,VALID,915.32,VALID,0,VALID,100,VALID,-0.101885,VALID,20.6517,VALID,26,VALID,0,
2008-10-19, 02:37:00,VALID,915.32,VALID,0,VALID,100,VALID,-0.101885,VALID,20.6484,VALID,26,VALID,0,
2008-10-19, 02:38:00,VALID,915.311,VALID,0,VALID,100,VALID,-0.101885,VALID,20.6519,VALID,26,VALID,0,
2008-10-19, 02:39:00,VALID,915.295,VALID,0,VALID,100,VALID,-0.118866,VALID,20.6679,VALID,26,VALID,0,
2008-10-19, 02:40:00,VALID,915.283,VALID,0,VALID,100,VALID,-0.101885,VALID,20.6809,VALID,26,VALID,0,
2008-10-19, 02:41:00,VALID,915.266,VALID,0,VALID,100,VALID,-0.101885,VALID,20.6906,VALID,26,VALID,0,
2008-10-19, 02:42:00,VALID,915.248,VALID,0,VALID,100,VALID,-0.0849042,VALID,20.6841,VALID,26,VALID,0,
2008-10-19, 02:43:00,VALID,915.23,VALID,0,VALID,100,VALID,-0.101885,VALID,20.6871,VALID,26,VALID,0,
2008-10-19, 02:44:00,VALID,915.212,VALID,0,VALID,100,VALID,-0.118866,VALID,20.7036,VALID,26,VALID,0,
2008-10-19, 02:45:00,VALID,915.202,VALID,0,VALID,100,VALID,-0.0849042,VALID,20.7325,VALID,26,VALID,0,
2008-10-19, 02:46:00,VALID,915.207,VALID,0,VALID,100,VALID,-0.101885,VALID,20.7425,VALID,26,VALID,0,
2008-10-19, 02:47:00,VALID,915.207,VALID,0,VALID,100,VALID,-0.101885,VALID,20.7555,VALID,26,VALID,0,
2008-10-19, 02:48:00,VALID,915.209,VALID,0,VALID,100,VALID,-0.118866,VALID,20.7688,VALID,26,VALID,0,
2008-10-19, 02:49:00,VALID,915.206,VALID,0,VALID,100,VALID,-0.0849042,VALID,20.7683,VALID,26,VALID,0,
2008-10-19, 02:50:00,VALID,915.201,VALID,0,VALID,100,VALID,-0.0169808,VALID,20.7572,VALID,26,VALID,0,
2008-10-19, 02:51:00,VALID,915.188,VALID,0,VALID,100,VALID,-0.0169808,VALID,20.7602,VALID,26,VALID,0,
2008-10-19, 02:52:00,VALID,915.183,VALID,0,VALID,100,VALID,0,VALID,20.7769,VALID,26,VALID,0,
2008-10-19, 02:53:00,VALID,915.182,VALID,0,VALID,100,VALID,-0.0169808,VALID,20.7834,VALID,26,VALID,0,
2008-10-19, 02:54:00,VALID,915.154,VALID,0,VALID,100,VALID,0,VALID,20.7959,VALID,26,VALID,0,
2008-10-19, 02:55:00,VALID,915.152,VALID,0,VALID,100,VALID,0.0169808,VALID,20.8086,VALID,26,VALID,0,
2008-10-19, 02:56:00,VALID,915.149,VALID,0,VALID,100,VALID,0,VALID,20.8286,VALID,26,VALID,0,
2008-10-19, 02:57:00,VALID,915.149,VALID,0,VALID,100,VALID,-0.0169808,VALID,20.8256,VALID,26,VALID,0,
2008-10-19, 02:58:00,VALID,915.148,VALID,0,VALID,100,VALID,-0.0169808,VALID,20.8186,VALID,26,VALID,0,
2008-10-19, 02:59:00,VALID,915.149,VALID,0,VALID,100,VALID,0,VALID,20.8354,VALID,26,VALID,0,
2008-10-19, 03:00:00,VALID,915.145,VALID,0,VALID,100,VALID,0,VALID,20.8389,VALID,26,VALID,0,
2008-10-19, 03:01:00,VALID,915.145,VALID,0,VALID,100,VALID,-0.0339617,VALID,20.8448,VALID,26,VALID,0,
2008-10-19, 03:02:00,VALID,915.128,VALID,0,VALID,100,VALID,0,VALID,20.8513,VALID,26,VALID,0,
2008-10-19, 03:03:00,VALID,915.108,VALID,0,VALID,100,VALID,0,VALID,20.8513,VALID,26,VALID,0,
2008-10-19, 03:04:00,VALID,915.095,VALID,0,VALID,100,VALID,0.0169808,VALID,20.8443,VALID,26,VALID,0,
2008-10-19, 03:05:00,VALID,915.08,VALID,0,VALID,100,VALID,0.0339617,VALID,20.8513,VALID,26,VALID,0,
2008-10-19, 03:06:00,VALID,915.054,VALID,0,VALID,100,VALID,0,VALID,20.8481,VALID,26,VALID,0,
2008-10-19, 03:07:00,VALID,915.038,VALID,0,VALID,100,VALID,0.0169808,VALID,20.8381,VALID,26,VALID,0,
2008-10-19, 03:08:00,VALID,915.01,VALID,0,VALID,100,VALID,0,VALID,20.8283,VALID,26,VALID,0,
2008-10-19, 03:09:00,VALID,914.999,VALID,0,VALID,100,VALID,0.0169808,VALID,20.8254,VALID,26,VALID,0,
2008-10-19, 03:10:00,VALID,914.978,VALID,0,VALID,100,VALID,0,VALID,20.8121,VALID,26,VALID,0,
2008-10-19, 03:11:00,VALID,914.945,VALID,0,VALID,100,VALID,0,VALID,20.7959,VALID,15,VALID,0.323331,
2008-10-19, 03:12:00,VALID,914.93,VALID,0,VALID,100,VALID,0,VALID,20.7797,VALID,4,VALID,0.184642,
2008-10-19, 03:13:00,VALID,914.913,VALID,0,VALID,100,VALID,-0.0169808,VALID,20.754,VALID,7,VALID,0,
2008-10-19, 03:14:00,VALID,914.91,VALID,0,VALID,100,VALID,-0.0169808,VALID,20.7375,VALID,21,VALID,0.313388,
2008-10-19, 03:15:00,VALID,914.908,VALID,0,VALID,100,VALID,-0.0169808,VALID,20.7112,VALID,13,VALID,0.651811,
2008-10-19, 03:16:00,VALID,914.909,VALID,0,VALID,100,VALID,0.0169808,VALID,20.705,VALID,13,VALID,0.403888,
2008-10-19, 03:17:00,VALID,914.911,VALID,0,VALID,100,VALID,0.0169808,VALID,20.7053,VALID,18,VALID,0.283918,
2008-10-19, 03:18:00,VALID,914.918,VALID,0,VALID,100,VALID,0,VALID,20.6955,VALID,10,VALID,0.482143,
2008-10-19, 03:19:00,VALID,914.918,VALID,0,VALID,100,VALID,-0.0339617,VALID,20.6866,VALID,1,VALID,0.0875727,
2008-10-19, 03:20:00,VALID,914.908,VALID,0,VALID,100,VALID,-0.118866,VALID,20.6746,VALID,3,VALID,0.481831,
2008-10-19, 03:21:00,VALID,914.907,VALID,0,VALID,100,VALID,-0.101885,VALID,20.6582,VALID,18,VALID,0.0785156,
2008-10-19, 03:22:00,VALID,914.904,VALID,0,VALID,100,VALID,-0.135847,VALID,20.6611,VALID,19,VALID,0,
2008-10-19, 03:23:00,VALID,914.91,VALID,0,VALID,100,VALID,-0.101885,VALID,20.6584,VALID,19,VALID,0,
2008-10-19, 03:24:00,VALID,914.898,VALID,0,VALID,100,VALID,-0.152827,VALID,20.6587,VALID,19,VALID,0,
2008-10-19, 03:25:00,VALID,914.901,VALID,0,VALID,100,VALID,-0.118866,VALID,20.6484,VALID,19,VALID,0,
2008-10-19, 03:26:00,VALID,914.883,VALID,0,VALID,100,VALID,-0.101885,VALID,20.6549,VALID,19,VALID,0,
2008-10-19, 03:27:00,VALID,914.898,VALID,0,VALID,100,VALID,-0.118866,VALID,20.6582,VALID,19,VALID,0,
2008-10-19, 03:28:00,VALID,914.904,VALID,0,VALID,100,VALID,-0.101885,VALID,20.6744,VALID,19,VALID,0,
2008-10-19, 03:29:00,VALID,914.902,VALID,0,VALID,100,VALID,-0.101885,VALID,20.6811,VALID,27,VALID,0,
2008-10-19, 03:30:00,VALID,914.897,VALID,0,VALID,100,VALID,-0.101885,VALID,20.6776,VALID,27,VALID,0,
2008-10-19, 03:31:00,VALID,914.905,VALID,0,VALID,100,VALID,-0.152827,VALID,20.6746,VALID,27,VALID,0,
2008-10-19, 03:32:00,VALID,914.906,VALID,0,VALID,100,VALID,-0.118866,VALID,20.6874,VALID,27,VALID,0,
2008-10-19, 03:33:00,VALID,914.912,VALID,0,VALID,100,VALID,-0.135847,VALID,20.6939,VALID,26,VALID,0.396341,
2008-10-19, 03:34:00,VALID,914.91,VALID,0,VALID,100,VALID,-0.118866,VALID,20.6806,VALID,25,VALID,0.103981,
2008-10-19, 03:35:00,VALID,914.913,VALID,0,VALID,100,VALID,-0.0339617,VALID,20.6898,VALID,21,VALID,0,
2008-10-19, 03:36:00,VALID,914.912,VALID,0,VALID,100,VALID,-0.0339617,VALID,20.6604,VALID,21,VALID,0,
2008-10-19, 03:37:00,VALID,914.901,VALID,0,VALID,100,VALID,-0.0339617,VALID,20.6536,VALID,21,VALID,0,
2008-10-19, 03:38:00,VALID,914.9,VALID,0,VALID,100,VALID,0,VALID,20.6669,VALID,18,VALID,0,
2008-10-19, 03:39:00,VALID,914.887,VALID,0,VALID,100,VALID,-0.0509425,VALID,20.6666,VALID,23,VALID,0.158482,
2008-10-19, 03:40:00,VALID,914.894,VALID,0,VALID,100,VALID,-0.0339617,VALID,20.6601,VALID,23,VALID,0,
2008-10-19, 03:41:00,VALID,914.878,VALID,0,VALID,100,VALID,-0.0339617,VALID,20.6604,VALID,294,VALID,0,
2008-10-19, 03:42:00,VALID,914.887,VALID,0,VALID,100,VALID,-0.0169808,VALID,20.6706,VALID,285,VALID,0,
2008-10-19, 03:43:00,VALID,914.871,VALID,0,VALID,100,VALID,-0.0849042,VALID,20.6571,VALID,285,VALID,0,
2008-10-19, 03:44:00,VALID,914.883,VALID,0,VALID,100,VALID,-0.0509425,VALID,20.6636,VALID,285,VALID,0,
2008-10-19, 03:45:00,VALID,914.877,VALID,0,VALID,100,VALID,-0.0339617,VALID,20.6701,VALID,285,VALID,0,
2008-10-19, 03:46:00,VALID,914.875,VALID,0,VALID,100,VALID,-0.0169808,VALID,20.6928,VALID,285,VALID,0,
2008-10-19, 03:47:00,VALID,914.863,VALID,0,VALID,100,VALID,-0.0169808,VALID,20.7063,VALID,285,VALID,0,
2008-10-19, 03:48:00,VALID,914.846,VALID,0,VALID,100,VALID,-0.0339617,VALID,20.712,VALID,285,VALID,0,
2008-10-19, 03:49:00,VALID,914.82,VALID,0,VALID,100,VALID,0,VALID,20.7118,VALID,285,VALID,0,
2008-10-19, 03:50:00,VALID,914.794,VALID,0,VALID,100,VALID,-0.0339617,VALID,20.7085,VALID,285,VALID,0,
2008-10-19, 03:51:00,VALID,914.759,VALID,0,VALID,100,VALID,-0.0509425,VALID,20.699,VALID,285,VALID,0,
2008-10-19, 03:52:00,VALID,914.733,VALID,0,VALID,100,VALID,-0.0509425,VALID,20.699,VALID,285,VALID,0,
2008-10-19, 03:53:00,VALID,914.709,VALID,0,VALID,100,VALID,-0.0169808,VALID,20.6793,VALID,285,VALID,0,
2008-10-19, 03:54:00,VALID,914.696,VALID,0,VALID,100,VALID,-0.0339617,VALID,20.6728,VALID,285,VALID,0,
2008-10-19, 03:55:00,VALID,914.706,VALID,0,VALID,100,VALID,-0.0169808,VALID,20.6898,VALID,288,VALID,0,